Retour au catalogue

STARLINK-32264

ActifCommunicationsVLEO
NORAD 61642·PAYLOAD·🇺🇸 United States

Lancé Oct 23, 2024 depuis Cape Canaveral Space Force Station

Loading…

Prochains Passages (prochaines 24 heures)

TLE

FraisSource: CelesTrak SupGP

Époque: Sep 14, 2026, 21:39 UTC

1 61642C 24191X   26257.90256944  .00111160  00000+0  63647-3 0  2572
2 61642  42.9835 122.5671 0027350 245.3032 278.9693 15.77228958    11

Suivez STARLINK-32264 en temps réel avec AllMySat

Download on the App Store